Change the Weather History Date:

Friday, February 21, 2014

  Actual Average (KEAU) Record (KEAU)
Temperature  
Mean Temperature 20 °F 22 °F  
Max Temperature 29 °F 31 °F 60 °F (1930)
Min Temperature 11 °F 12 °F -23 °F (1936)
Degree Days  
Heating Degree Days 45 43  
Month to date heating degree days 983  
Since 1 July heating degree days 5727  
Cooling Degree Days 0 0  
Month to date cooling degree days 0  
Year to date cooling degree days 0  
Moisture  
Dew Point 9 °F    
Average Humidity 76    
Maximum Humidity 92    
Minimum Humidity 70    
Precipitation  
Precipitation 0.10 in 0.03 in 0.37 in (1981)
Month to date precipitation 0.58  
Year to date precipitation 1.47  
Snow  
Snow 0.00 in 0.30 in 4.00 in (2002)
Month to date snowfall 5.6  
Since 1 July snowfall 34.6  
Snow Depth -    
Sea Level Pressure  
Sea Level Pressure 29.44 in    
Wind  
Wind Speed 12 mph (WSW)    
Max Wind Speed 15 mph    
Max Gust Speed 21 mph    
Visibility 6 miles    
Events Snow    
T = Trace of Precipitation, MM = Missing Value Source: NWS Daily Summary

Daily Weather History Graph

Daily Weather History Graph

Search for Another Location

Airport or City:

Trip Planner

Search our weather history database for the weather conditions in past years. The results will help you decide how hot, cold, wet, or windy it might be!

Date:

Astronomy

Feb. 21, 2014 Rise Set
Actual Time 6:58 AM CST 5:44 PM CST
Civil Twilight 6:28 AM CST 6:13 PM CST
Nautical Twilight 5:54 AM CST 6:48 PM CST
Astronomical Twilight 5:21 AM CST 7:21 PM CST
Moon No Moon Rise 10:05 AM CST (2/21)
Length of Visible Light 11h 45m
Length of Day
10h 45m
Waning Gibbous, 60% of the Moon is Illuminated
Feb 21
Waning Gibbous
Feb 22
Last Quarter
Mar 1
New
Mar 8
First Quarter
Mar 16
Full

Hourly Weather History & Observations

Time (CST) Temp. Windchill Dew Point Humidity Pressure Visibility Wind Dir Wind Speed Gust Speed Precip Events Conditions
12:15 AM 29.3 °F 19.1 °F 27.1 °F 92% 29.11 in 1.2 mi West 12.7 mph - N/A Snow Light Snow
12:35 AM 26.1 °F 14.5 °F 23.0 °F 88% 29.11 in 1.0 mi West 13.8 mph - N/A Snow Light Snow
12:55 AM 24.6 °F 12.7 °F 21.9 °F 89% 29.13 in 1.0 mi West 13.8 mph 19.6 mph N/A Snow Light Snow
1:15 AM 23.5 °F 13.0 °F 20.8 °F 89% 29.14 in 1.2 mi West 10.4 mph - N/A Snow Light Snow
1:35 AM 23.0 °F 10.6 °F 20.3 °F 89% 29.15 in 1.5 mi West 13.8 mph 20.7 mph 0.01 in Snow Light Snow
1:55 AM 22.1 °F 10.0 °F 19.0 °F 88% 29.16 in 1.8 mi West 12.7 mph - 0.01 in Snow Light Snow
2:15 AM 20.8 °F 9.7 °F 17.6 °F 87% 29.16 in 1.8 mi West 10.4 mph - N/A Snow Light Snow
2:35 AM 19.4 °F 6.6 °F 15.6 °F 85% 29.17 in 2.5 mi West 12.7 mph 16.1 mph N/A Snow Light Snow
2:55 AM 18.1 °F 5.6 °F 14.4 °F 85% 29.18 in 2.0 mi West 11.5 mph 16.1 mph 0.01 in Snow Light Snow
3:15 AM 17.4 °F 3.5 °F 13.1 °F 83% 29.20 in 2.5 mi West 13.8 mph 19.6 mph N/A Snow Light Snow
3:35 AM 16.7 °F 3.8 °F 12.2 °F 82% 29.21 in 3.0 mi West 11.5 mph 18.4 mph N/A Snow Light Snow
3:55 AM 16.2 °F 3.2 °F 11.3 °F 81% 29.21 in 3.0 mi West 11.5 mph 18.4 mph N/A Snow Light Snow
4:15 AM 15.6 °F 0.6 °F 10.8 °F 81% 29.23 in 2.5 mi West 15.0 mph 19.6 mph N/A Snow Light Snow
4:35 AM 14.9 °F -0.3 °F 10.0 °F 81% 29.24 in 2.5 mi West 15.0 mph 18.4 mph 0.01 in Snow Light Snow
4:55 AM 14.4 °F 1.6 °F 9.5 °F 81% 29.26 in 2.5 mi West 10.4 mph 19.6 mph 0.01 in Snow Light Snow
5:15 AM 14.0 °F -0.2 °F 9.1 °F 81% 29.27 in 3.0 mi West 12.7 mph 19.6 mph N/A   Haze
5:35 AM 13.6 °F 0.7 °F 8.2 °F 79% 29.28 in 5.0 mi West 10.4 mph 18.4 mph N/A Snow Light Snow
5:55 AM 13.1 °F 0.1 °F 7.5 °F 78% 29.29 in 4.0 mi West 10.4 mph - N/A   Haze
6:15 AM 12.2 °F -1.8 °F 6.6 °F 78% 29.30 in 5.0 mi WSW 11.5 mph - N/A   Haze
6:35 AM 11.8 °F -0.7 °F 5.9 °F 77% 29.31 in 5.0 mi West 9.2 mph 18.4 mph N/A   Haze
6:55 AM 12.0 °F -1.3 °F 6.3 °F 78% 29.32 in 5.0 mi West 10.4 mph - 0.01 in Snow Light Snow
7:15 AM 11.5 °F -3.4 °F 5.7 °F 78% 29.33 in 5.0 mi West 12.7 mph 17.3 mph N/A   Haze
7:35 AM 11.3 °F -1.3 °F 5.7 °F 78% 29.34 in 7.0 mi WSW 9.2 mph - N/A   Clear
7:55 AM 11.1 °F -1.6 °F 5.5 °F 78% 29.35 in 5.0 mi West 9.2 mph - N/A   Haze
8:15 AM 11.3 °F -2.2 °F 5.4 °F 77% 29.36 in 4.0 mi WSW 10.4 mph 17.3 mph N/A   Haze
8:35 AM 11.1 °F -3.9 °F 5.0 °F 76% 29.37 in 4.0 mi WSW 12.7 mph 18.4 mph 0.01 in   Haze
8:55 AM 11.3 °F -2.9 °F 5.0 °F 76% 29.37 in 3.0 mi West 11.5 mph 17.3 mph 0.01 in   Haze
9:15 AM 11.3 °F -2.9 °F 4.6 °F 75% 29.38 in 3.0 mi WSW 11.5 mph - N/A   Haze
9:35 AM 11.7 °F -2.5 °F 4.6 °F 73% 29.39 in 3.0 mi WSW 11.5 mph 18.4 mph N/A   Haze
9:55 AM 11.8 °F -3.0 °F 4.5 °F 72% 29.40 in 2.5 mi WSW 12.7 mph 18.4 mph N/A   Haze
10:15 AM 11.8 °F -3.6 °F 4.8 °F 73% 29.40 in 1.5 mi WSW 13.8 mph - N/A   Haze
10:35 AM 11.8 °F -3.6 °F 5.0 °F 74% 29.41 in 1.8 mi WSW 13.8 mph 19.6 mph N/A   Haze
10:55 AM 12.2 °F -1.8 °F 5.0 °F 73% 29.42 in 2.0 mi WSW 11.5 mph - 0.01 in Snow Light Snow
11:15 AM 12.6 °F -3.3 °F 4.8 °F 71% 29.43 in 2.5 mi WSW 15.0 mph 20.7 mph N/A   Haze
11:35 AM 12.2 °F -2.5 °F 4.5 °F 71% 29.44 in 5.0 mi West 12.7 mph 20.7 mph N/A   Haze
11:55 AM 12.7 °F -2.5 °F 5.4 °F 72% 29.44 in 5.0 mi West 13.8 mph 19.6 mph N/A   Haze
12:15 PM 13.1 °F 0.1 °F 6.1 °F 74% 29.45 in 5.0 mi WSW 10.4 mph - N/A   Haze
12:35 PM 13.5 °F -1.5 °F 6.3 °F 73% 29.45 in 3.0 mi WSW 13.8 mph 17.3 mph N/A   Haze
12:55 PM 13.6 °F -1.3 °F 6.8 °F 74% 29.46 in 2.5 mi West 13.8 mph - 0.01 in   Haze
1:15 PM 14.0 °F 0.5 °F 6.8 °F 73% 29.47 in 2.5 mi WSW 11.5 mph 16.1 mph N/A   Haze
1:35 PM 14.2 °F 0.0 °F 7.2 °F 74% 29.47 in 3.0 mi WSW 12.7 mph - N/A Snow Light Snow
1:55 PM 14.7 °F 2.1 °F 7.3 °F 73% 29.48 in 3.0 mi WSW 10.4 mph 18.4 mph N/A Snow Light Snow
2:15 PM 14.9 °F -0.3 °F 7.5 °F 73% 29.49 in 3.0 mi WSW 15.0 mph - N/A Snow Light Snow
2:35 PM 15.6 °F 1.8 °F 8.1 °F 72% 29.50 in 4.0 mi WSW 12.7 mph - N/A Snow Light Snow
2:55 PM 15.1 °F 0.5 °F 7.3 °F 71% 29.51 in 5.0 mi WSW 13.8 mph 19.6 mph N/A   Haze
3:15 PM 15.8 °F 3.4 °F 7.9 °F 71% 29.52 in 7.0 mi WSW 10.4 mph - N/A   Clear
3:35 PM 15.6 °F 3.2 °F 7.9 °F 72% 29.53 in 7.0 mi WSW 10.4 mph 16.1 mph 0.01 in   Scattered Clouds
3:55 PM 15.8 °F 0.9 °F 7.7 °F 70% 29.54 in 5.0 mi WSW 15.0 mph 18.4 mph 0.01 in Snow Light Snow
4:15 PM 15.4 °F 1.0 °F 7.7 °F 71% 29.55 in 10.0 mi WSW 13.8 mph - N/A   Clear
4:35 PM 15.4 °F 2.3 °F 7.7 °F 71% 29.56 in 7.0 mi WSW 11.5 mph - N/A   Clear
4:55 PM 15.4 °F 1.6 °F 7.7 °F 71% 29.57 in 7.0 mi WSW 12.7 mph 19.6 mph N/A   Clear
5:15 PM 15.4 °F 3.0 °F 7.7 °F 71% 29.58 in 10.0 mi WSW 10.4 mph 18.4 mph N/A   Clear
5:35 PM 14.9 °F 1.6 °F 7.7 °F 73% 29.58 in 10.0 mi WSW 11.5 mph - N/A   Clear
5:55 PM 14.9 °F 2.3 °F 7.7 °F 73% 29.59 in 10.0 mi WSW 10.4 mph 16.1 mph N/A   Scattered Clouds
6:15 PM 14.2 °F 2.2 °F 7.5 °F 75% 29.60 in 10.0 mi WSW 9.2 mph - 0.01 in   Clear
6:35 PM 14.4 °F 1.6 °F 7.7 °F 75% 29.61 in 10.0 mi WSW 10.4 mph - 0.01 in   Clear
6:55 PM 14.0 °F 2.0 °F 7.5 °F 75% 29.63 in 10.0 mi WSW 9.2 mph - 0.01 in   Clear
7:15 PM 14.5 °F 1.1 °F 7.7 °F 74% 29.64 in 10.0 mi WSW 11.5 mph - N/A   Clear
7:35 PM 14.2 °F 0.7 °F 7.3 °F 74% 29.65 in 10.0 mi West 11.5 mph - N/A   Clear
7:55 PM 14.0 °F 0.5 °F 7.7 °F 76% 29.65 in 10.0 mi WSW 11.5 mph 16.1 mph N/A   Clear
8:15 PM 14.0 °F 1.2 °F 7.2 °F 74% 29.66 in 10.0 mi West 10.4 mph - N/A   Clear
8:35 PM 14.0 °F 0.5 °F 7.3 °F 75% 29.67 in 10.0 mi WSW 11.5 mph 16.1 mph N/A   Scattered Clouds
8:55 PM 13.8 °F 1.0 °F 6.8 °F 74% 29.68 in 10.0 mi West 10.4 mph - N/A   Scattered Clouds
9:15 PM 14.0 °F 1.2 °F 6.8 °F 73% 29.68 in 10.0 mi WSW 10.4 mph - N/A   Scattered Clouds
9:35 PM 14.0 °F 1.2 °F 6.6 °F 72% 29.69 in 10.0 mi West 10.4 mph 20.7 mph 0.01 in   Scattered Clouds
9:55 PM 14.0 °F -0.2 °F 6.6 °F 72% 29.69 in 10.0 mi West 12.7 mph - 0.01 in   Scattered Clouds
10:15 PM 13.6 °F 0.0 °F 6.6 °F 74% 29.69 in 10.0 mi West 11.5 mph 18.4 mph N/A   Scattered Clouds
10:35 PM 13.6 °F -0.7 °F 6.6 °F 74% 29.70 in 10.0 mi West 12.7 mph 18.4 mph N/A   Scattered Clouds
10:55 PM 13.3 °F -1.1 °F 6.6 °F 75% 29.70 in 10.0 mi West 12.7 mph - N/A   Scattered Clouds
11:15 PM 13.1 °F -1.4 °F 6.6 °F 75% 29.71 in 10.0 mi West 12.7 mph - N/A   Scattered Clouds
11:35 PM 12.9 °F -0.9 °F 6.4 °F 75% 29.71 in 10.0 mi West 11.5 mph - N/A   Scattered Clouds
11:55 PM 12.4 °F -1.6 °F 5.9 °F 75% 29.71 in 10.0 mi West 11.5 mph - N/A   Clear